Adrian, MI

10:27 PM EST on January 16, 2018 (GMT -0500)
Lenawee County

Weather History for KADG - August, 2013

Change the Weather History Date:

Wednesday, August 28, 2013

  Actual Average Record
Temperature  
Mean Temperature 76 °F -  
Max Temperature 82 °F 80 °F 95 °F (1953)
Min Temperature 71 °F 58 °F 39 °F (1986)
Cooling Degree Days 12    
Growing Degree Days 26 (Base 50)    
Moisture  
Dew Point 72 °F    
Average Humidity 86    
Maximum Humidity 96    
Minimum Humidity 71    
Precipitation  
Precipitation 0.23 in - - ()
Sea Level Pressure  
Sea Level Pressure 29.90 in    
Wind  
Wind Speed 7 mph (North)    
Max Wind Speed 16 mph    
Max Gust Speed 23 mph    
Visibility 9 miles    
Events Rain    
Averages and records for this station are not official NWS values.
T = Trace of Precipitation, MM = Missing Value Source: NWS Daily Summary

Daily Weather History Graph

Daily Weather History Graph

Search for Another Location

Airport or City:

Trip Planner

Search our weather history database for the weather conditions in past years. The results will help you decide how hot, cold, wet, or windy it might be!

Date:

Astronomy

Aug. 28, 2013 Rise Set
Actual Time 6:58 AM EDT 8:15 PM EDT
Civil Twilight 6:29 AM EDT 8:44 PM EDT
Nautical Twilight 5:54 AM EDT 9:19 PM EDT
Astronomical Twilight 5:17 AM EDT 9:55 PM EDT
Moon 12:03 AM EDT (8/28) 2:55 PM EDT (8/28)
Length of Visible Light 14h 15m
Length of Day
13h 17m
Waning Gibbous, 47% of the Moon is Illuminated
Aug 28
Waning Gibbous
Sep 5
New
Sep 12
First Quarter
Sep 19
Full
Sep 26
Last Quarter

Hourly Weather History & Observations

Time (EDT) Temp. Heat Index Dew Point Humidity Pressure Visibility Wind Dir Wind Speed Gust Speed Precip Events Conditions
12:53 AM 79.0 °F - 72.0 °F 79% 29.85 in 10.0 mi WSW 8.1 mph - N/A   Clear
1:53 AM 77.0 °F - 73.0 °F 88% 29.85 in 5.0 mi WSW 6.9 mph - 0.00 in Rain Rain
2:41 AM 75.2 °F - 73.4 °F 94% 29.87 in 2.0 mi Calm Calm - 0.15 in Rain Rain
2:44 AM 75.2 °F - 73.4 °F 94% 29.87 in 1.5 mi SW 3.5 mph - 0.18 in Rain Heavy Rain
2:53 AM 75.0 °F - 73.0 °F 94% 29.86 in 2.0 mi WSW 4.6 mph - 0.21 in Rain Rain
3:03 AM 75.2 °F - 73.4 °F 94% 29.86 in 4.0 mi West 12.7 mph 18.4 mph 0.01 in Rain Light Rain
3:44 AM 73.4 °F - 71.6 °F 94% 29.86 in 7.0 mi West 13.8 mph 20.7 mph 0.01 in Rain Light Rain
3:53 AM 73.0 °F - 72.0 °F 96% 29.85 in 6.0 mi WNW 8.1 mph 19.6 mph 0.01 in Rain Light Rain
4:14 AM 73.4 °F - 71.6 °F 94% 29.84 in 7.0 mi WNW 16.1 mph 23.0 mph 0.01 in Rain Light Rain
4:53 AM 73.0 °F - 71.1 °F 93% 29.82 in 10.0 mi West 4.6 mph - 0.01 in   Partly Cloudy
5:53 AM 72.0 °F - 70.0 °F 93% 29.83 in 10.0 mi Calm Calm - N/A   Clear
6:53 AM 71.1 °F - 69.1 °F 93% 29.83 in 10.0 mi Calm Calm - N/A   Clear
7:53 AM 72.0 °F - 70.0 °F 93% 29.85 in 7.0 mi Calm Calm - N/A   Clear
8:36 AM 73.4 °F - 71.6 °F 94% 29.87 in 8.0 mi NE 3.5 mph - N/A   Mostly Cloudy
8:53 AM 73.9 °F - 71.1 °F 91% 29.87 in 10.0 mi NNE 4.6 mph - N/A   Overcast
9:48 AM 75.2 °F - 71.6 °F 89% 29.89 in 10.0 mi NE 3.5 mph - N/A   Overcast
9:53 AM 75.0 °F - 72.0 °F 90% 29.88 in 10.0 mi NNE 3.5 mph - N/A   Overcast
10:19 AM 75.2 °F - 71.6 °F 89% 29.89 in 10.0 mi Calm Calm - N/A   Overcast
10:31 AM 77.0 °F - 73.4 °F 89% 29.90 in 10.0 mi North 6.9 mph - N/A   Overcast
10:53 AM 77.0 °F - 73.0 °F 88% 29.89 in 10.0 mi North 6.9 mph - N/A   Overcast
11:21 AM 78.8 °F - 73.4 °F 83% 29.91 in 10.0 mi North 8.1 mph - N/A   Overcast
11:49 AM 78.8 °F - 73.4 °F 83% 29.91 in 10.0 mi North 9.2 mph - N/A   Overcast
11:53 AM 79.0 °F - 73.0 °F 82% 29.90 in 10.0 mi NNE 8.1 mph - N/A   Overcast
12:53 PM 80.1 °F 84.2 °F 73.0 °F 79% 29.91 in 10.0 mi NNE 9.2 mph - N/A   Overcast
1:46 PM 82.4 °F 88.2 °F 73.4 °F 74% 29.93 in 10.0 mi North 9.2 mph - N/A   Mostly Cloudy
1:53 PM 81.0 °F 85.8 °F 73.0 °F 77% 29.91 in 10.0 mi North 10.4 mph - N/A   Mostly Cloudy
2:53 PM 81.0 °F 85.8 °F 73.0 °F 77% 29.93 in 10.0 mi North 8.1 mph - N/A   Overcast
3:53 PM 80.1 °F 84.2 °F 73.0 °F 79% 29.94 in 10.0 mi North 6.9 mph - N/A   Overcast
4:16 PM 80.6 °F 84.6 °F 71.6 °F 74% 29.95 in 10.0 mi North 9.2 mph - N/A   Overcast
4:24 PM 80.6 °F 85.4 °F 73.4 °F 79% 29.95 in 10.0 mi North 9.2 mph - N/A   Overcast
4:53 PM 80.1 °F 83.8 °F 72.0 °F 76% 29.94 in 10.0 mi NE 10.4 mph - N/A   Overcast
5:53 PM 82.0 °F 86.7 °F 72.0 °F 71% 29.95 in 10.0 mi NNE 11.5 mph - N/A   Mostly Cloudy
6:53 PM 79.0 °F - 71.1 °F 77% 29.96 in 10.0 mi NNE 9.2 mph - N/A   Clear
7:53 PM 77.0 °F - 71.1 °F 82% 29.97 in 10.0 mi North 5.8 mph - N/A   Scattered Clouds
8:53 PM 73.9 °F - 71.1 °F 91% 29.99 in 7.0 mi North 3.5 mph - N/A   Partly Cloudy
9:53 PM 73.9 °F - 71.1 °F 91% 30.00 in 10.0 mi NNW 5.8 mph - N/A   Clear
10:53 PM 72.0 °F - 70.0 °F 93% 30.01 in 9.0 mi NNE 5.8 mph - N/A   Clear
11:53 PM 71.1 °F - 68.0 °F 90% 30.02 in 10.0 mi NNE 5.8 mph - N/A   Clear